Greeley, CO

9:07 AM MDT on April 23, 2017 (GMT -0600)
Greeley-Weld County

Weather History for KGXY - December, 2012

Change the Weather History Date:

Wednesday, December 5, 2012

  Actual Average Record
Temperature  
Mean Temperature 42 °F -  
Max Temperature 57 °F - 65 °F (1989)
Min Temperature 28 °F - -14 °F (2013)
Degree Days  
Heating Degree Days 22    
Month to date heating degree days  
Cooling Degree Days 0    
Month to date cooling degree days  
Moisture  
Dew Point 26 °F    
Average Humidity 59    
Maximum Humidity 75    
Minimum Humidity 38    
Precipitation  
Precipitation 0.00 in - 0.58 in (1972)
Sea Level Pressure  
Sea Level Pressure 29.96 in    
Wind  
Wind Speed 3 mph (NE)    
Max Wind Speed 13 mph    
Max Gust Speed -    
Visibility 10 miles    
Events      
T = Trace of Precipitation, MM = Missing Value Source: NWS Daily Summary

Daily Weather History Graph

Daily Weather History Graph

Search for Another Location

Airport or City:

Trip Planner

Search our weather history database for the weather conditions in past years. The results will help you decide how hot, cold, wet, or windy it might be!

Date:

Astronomy

Dec. 05, 2012 Rise Set
Actual Time 7:06 AM MST 4:31 PM MST
Civil Twilight 6:36 AM MST 5:02 PM MST
Nautical Twilight 6:02 AM MST 5:36 PM MST
Astronomical Twilight 5:29 AM MST 6:09 PM MST
Moon 11:25 PM MST (12/5) 11:30 AM MST (12/5)
Length of Visible Light 10h 25m
Length of Day
9h 25m
Waning Gibbous, 59% of the Moon is Illuminated
Dec 5
Waning Gibbous
Dec 6
Last Quarter
Dec 13
New
Dec 19
First Quarter
Dec 28
Full

Hourly Weather History & Observations

Time (MST) Temp. Windchill Dew Point Humidity Pressure Visibility Wind Dir Wind Speed Gust Speed Precip Events Conditions
12:15 AM 30.2 °F - 21.2 °F 69% 30.16 in 10.0 mi Calm Calm - N/A   Clear
12:55 AM 30.2 °F - 21.2 °F 69% 30.14 in 10.0 mi Calm Calm - N/A   Clear
1:15 AM 30.2 °F 23.4 °F 21.2 °F 69% 30.14 in 10.0 mi North 6.9 mph - N/A   Clear
2:15 AM 30.2 °F - 21.2 °F 69% 30.15 in 10.0 mi Calm Calm - N/A   Clear
2:35 AM 30.2 °F - 21.2 °F 69% 30.13 in 10.0 mi Calm Calm - N/A   Clear
2:55 AM 30.2 °F 26.7 °F 21.2 °F 69% 30.13 in 10.0 mi South 3.5 mph - N/A   Clear
3:15 AM 30.2 °F 24.3 °F 23.0 °F 75% 30.13 in 10.0 mi NW 5.8 mph - N/A   Clear
3:35 AM 30.2 °F - 21.2 °F 69% 30.13 in 8.0 mi Calm Calm - N/A   Clear
3:55 AM 30.2 °F - 21.2 °F 69% 30.12 in 10.0 mi Calm Calm - N/A   Clear
4:15 AM 30.2 °F - 21.2 °F 69% 30.11 in 10.0 mi Calm Calm - N/A   Clear
4:35 AM 30.2 °F - 21.2 °F 69% 30.09 in 10.0 mi Calm Calm - N/A   Clear
4:55 AM 30.2 °F - 21.2 °F 69% 30.10 in 10.0 mi Calm Calm - N/A   Clear
5:15 AM 32.0 °F 24.8 °F 21.2 °F 64% 30.09 in 10.0 mi West 8.1 mph - N/A   Clear
5:35 AM 32.0 °F 28.7 °F 23.0 °F 69% 30.08 in 10.0 mi NE 3.5 mph - N/A   Clear
5:55 AM 32.0 °F 25.6 °F 21.2 °F 64% 30.09 in 10.0 mi North 6.9 mph - N/A   Clear
7:35 AM 28.4 °F 22.2 °F 21.2 °F 74% 30.06 in 10.0 mi East 5.8 mph - N/A   Clear
7:55 AM 28.4 °F 24.6 °F 21.2 °F 74% 30.06 in 10.0 mi ENE 3.5 mph - N/A   Clear
8:15 AM 30.2 °F - 23.0 °F 75% 30.05 in 10.0 mi Calm Calm - N/A   Clear
8:35 AM 33.8 °F 27.7 °F 24.8 °F 70% 30.04 in 7.0 mi ENE 6.9 mph - N/A   Clear
8:55 AM 35.6 °F - 24.8 °F 65% 30.04 in 9.0 mi Calm Calm - N/A   Clear
9:35 AM 39.2 °F - 24.8 °F 56% 30.01 in 10.0 mi Calm Calm - N/A   Clear
9:55 AM 39.2 °F - 24.8 °F 56% 30.00 in 10.0 mi Calm Calm - N/A   Clear
10:15 AM 39.2 °F 35.9 °F 26.6 °F 61% 30.01 in 10.0 mi NE 4.6 mph - N/A   Clear
10:35 AM 41.0 °F - 24.8 °F 53% 29.99 in 10.0 mi Calm Calm - N/A   Clear
10:55 AM 42.8 °F 40.1 °F 24.8 °F 49% 29.97 in 10.0 mi ENE 4.6 mph - N/A   Clear
11:35 AM 46.4 °F - 28.4 °F 50% 29.93 in 10.0 mi Calm Calm - N/A   Clear
11:55 AM 48.2 °F - 28.4 °F 46% 29.92 in 10.0 mi ESE 4.6 mph - N/A   Clear
12:15 PM 51.8 °F - 28.4 °F 41% 29.90 in 10.0 mi South 6.9 mph - N/A   Clear
12:35 PM 53.6 °F - 30.2 °F 41% 29.90 in 10.0 mi SE 5.8 mph - N/A   Clear
12:55 PM 55.4 °F - 30.2 °F 38% 29.89 in 10.0 mi East 3.5 mph - N/A   Clear
1:15 PM 55.4 °F - 32.0 °F 41% 29.87 in 10.0 mi East 5.8 mph - N/A   Clear
2:15 PM 57.2 °F - 33.8 °F 41% 29.85 in 10.0 mi East 6.9 mph - N/A   Clear
2:35 PM 57.2 °F - 32.0 °F 38% 29.84 in 10.0 mi Calm Calm - N/A   Clear
2:55 PM 57.2 °F - 33.8 °F 41% 29.84 in 10.0 mi SE 5.8 mph - N/A   Clear
3:15 PM 55.4 °F - 32.0 °F 41% 29.84 in 10.0 mi ENE 4.6 mph - N/A   Clear
3:35 PM 53.6 °F - 30.2 °F 41% 29.84 in 10.0 mi NNE 6.9 mph - N/A   Clear
3:55 PM 53.6 °F - 30.2 °F 41% 29.84 in 9.0 mi NE 3.5 mph - N/A   Clear
4:35 PM 46.4 °F - 28.4 °F 50% 29.84 in 10.0 mi Calm Calm - N/A   Clear
4:55 PM 44.6 °F 43.1 °F 28.4 °F 53% 29.86 in 10.0 mi WNW 3.5 mph - N/A   Clear
5:35 PM 42.8 °F 39.3 °F 28.4 °F 57% 29.86 in 10.0 mi NW 5.8 mph - N/A   Scattered Clouds
5:55 PM 42.8 °F 38.0 °F 28.4 °F 57% 29.87 in 10.0 mi WNW 8.1 mph - N/A   Scattered Clouds
6:15 PM 42.8 °F 37.5 °F 28.4 °F 57% 29.86 in 10.0 mi North 9.2 mph - N/A   Clear
6:35 PM 42.8 °F 40.1 °F 28.4 °F 57% 29.86 in 10.0 mi ESE 4.6 mph - N/A   Scattered Clouds
6:55 PM 41.0 °F - 28.4 °F 61% 29.86 in 10.0 mi Calm Calm - N/A   Scattered Clouds
7:15 PM 39.2 °F 34.2 °F 26.6 °F 61% 29.86 in 10.0 mi West 6.9 mph - N/A   Scattered Clouds
7:35 PM 39.2 °F - 26.6 °F 61% 29.86 in 10.0 mi Calm Calm - N/A   Partly Cloudy
7:55 PM 39.2 °F - 26.6 °F 61% 29.86 in 10.0 mi Calm Calm - N/A   Clear
8:15 PM 35.6 °F 28.0 °F 26.6 °F 70% 29.87 in 10.0 mi NE 10.4 mph - N/A   Clear
8:35 PM 35.6 °F - 26.6 °F 70% 29.86 in 10.0 mi Calm Calm - N/A   Clear
8:55 PM 44.6 °F 38.4 °F 28.4 °F 53% 29.86 in 10.0 mi WNW 12.7 mph - N/A   Clear
9:15 PM 42.8 °F 39.3 °F 26.6 °F 53% 29.87 in 10.0 mi NW 5.8 mph - N/A   Clear
9:35 PM 37.4 °F 34.9 °F 26.6 °F 65% 29.88 in 10.0 mi ESE 3.5 mph - N/A   Clear
9:55 PM 39.2 °F 35.0 °F 26.6 °F 61% 29.87 in 10.0 mi SW 5.8 mph - N/A   Clear
10:15 PM 37.4 °F 32.1 °F 24.8 °F 60% 29.86 in 10.0 mi West 6.9 mph - N/A   Clear
10:35 PM 33.8 °F - 24.8 °F 70% 29.87 in 10.0 mi Calm Calm - N/A   Clear
10:55 PM 35.6 °F - 24.8 °F 65% 29.87 in 10.0 mi Calm Calm - N/A   Clear
11:15 PM 37.4 °F 30.3 °F 26.6 °F 65% 29.88 in 9.0 mi NNE 10.4 mph - N/A   Clear
11:35 PM 37.4 °F 32.1 °F 26.6 °F 65% 29.88 in 10.0 mi North 6.9 mph - N/A   Clear
11:55 PM 41.0 °F 34.7 °F 28.4 °F 61% 29.87 in 10.0 mi North 10.4 mph - N/A   Clear